Tracking 30746 objects as of 19-Jun-2025
HD Live streaming from Space Station
objects crossing your sky now

THOR ABLESTAR DEB

Track THOR ABLESTAR DEB now!
10-day predictions


NORAD ID: 656
Int'l Code: 1961-015HH
Perigee: 859.7 km
Apogee: 1,900.7 km
Inclination: 66.3 °
Period: 113.2 minutes
Semi major axis: 7751 km
RCS: 0.0195 m2 (small)
Launch date: June 29, 1961
Source: United States (US)
Launch site: AIR FORCE EASTERN TEST RANGE (AFETR)

Note: This is SATELLITE DEBRIS
Your satellite tracking list
Your tracking list is empty




NASA's NSSDC Master Catalog

Two Line Element Set (TLE):
1   656U 61015HH  25166.91263131  .00002089  00000-0  41896-2 0  9995
2   656  66.2885 232.1921 0671489 300.6422  53.0031 12.72177288921386
Source of the keplerian elements: AFSPC